This demonstration page uses our WeatherBlox Daily Observations layout. Learn more.

40.92945, -100.16068

Hourly Observations for December 7, 2018

Temp ( °F °C ) Dew Point ( °F °C ) Humidity (%) Winds ( mph kmh ) Pressure ( in mb ) Visibility ( mi km ) Precip ( " mm )
12:15 am 00:15 Partly Cloudy 19 -7.2 16 -9.1 86 86 SSE 8 13 30.53 1034 10 16.09344 0 0
12:35 am 00:35 Cloudy 20 -6.5 17 -8.5 86 86 SSE 6 9 30.53 1034 10 16.09344 0 0
12:55 am 00:55 Mostly Cloudy 20 -6.6 17 -8.6 86 86 SSE 5 7 30.53 1034 10 16.09344 0 0
1:15 am 01:15 Partly Cloudy 19 -7 16 -9 86 86 SSE 8 13 30.53 1034 10 16.09344 0 0
1:35 am 01:35 Clear 19 -7.1 16 -9 86 86 SSE 8 13 30.53 1034 10 16.09344 0 0
1:55 am 01:55 Partly Cloudy 20 -6.9 16 -8.8 87 87 SSE 6 9 30.53 1034 10 16.09344 0 0
2:15 am 02:15 Partly Cloudy 19 -7.1 16 -9 86 86 SSE 7 11 30.53 1034 10 16.09344 0 0
2:35 am 02:35 Clear 19 -7.4 16 -9.1 88 88 SSE 6 9 30.53 1034 10 16.09344 0 0
2:55 am 02:55 Clear 18 -8 15 -9.5 89 89 S 6 9 30.56 1035 10 16.09344 0 0
3:15 am 03:15 Clear 17 -8.3 14 -10 88 88 S 7 11 30.56 1035 10 16.09344 0 0
3:35 am 03:35 Clear 18 -7.8 15 -9.3 89 89 Calm 30.56 1035 10 16.09344 0 0
3:55 am 03:55 Clear 18 -8 15 -9.6 88 88 SSE 5 7 30.56 1035 10 16.09344 0 0
4:15 am 04:15 Clear 19 -7.3 16 -8.7 90 90 S 5 7 30.53 1034 10 16.09344 0 0
4:35 am 04:35 Clear 17 -8.5 14 -10 89 89 S 6 9 30.56 1035 10 16.09344 0 0
4:55 am 04:55 Clear 16 -8.7 13 -10.3 88 88 SSE 7 11 30.53 1034 10 16.09344 0 0
5:15 am 05:15 Clear 17 -8.1 15 -9.5 90 90 SSE 7 11 30.56 1035 10 16.09344 0 0
5:35 am 05:35 Clear 17 -8.5 14 -10 89 89 SSE 3 6 30.56 1035 10 16.09344 0 0
5:55 am 05:55 Clear 17 -8.3 15 -9.7 90 90 S 6 9 30.56 1035 10 16.09344 0 0
6:15 am 06:15 Clear 17 -8.2 15 -9.5 90 90 SSE 5 7 30.56 1035 10 16.09344 0 0
6:35 am 06:35 Clear 17 -8.3 15 -9.4 92 92 S 5 7 30.56 1035 10 16.09344 0 0
6:55 am 06:55 Clear 21 -6.3 18 -7.6 91 91 SSW 7 11 30.53 1034 10 16.09344 0 0
7:15 am 07:15 Clear 20 -6.7 17 -8.2 89 89 SSW 7 11 30.53 1034 10 16.09344 0 0
7:35 am 07:35 Clear 21 -6 18 -7.7 88 88 SW 7 11 30.53 1034 10 16.09344 0 0
7:55 am 07:55 Sunny 22 -5.8 18 -7.6 87 87 SSW 7 11 30.53 1034 10 16.09344 0 0
8:15 am 08:15 Sunny 21 -5.9 18 -7.8 87 87 SSW 5 7 30.53 1034 10 16.09344 0 0
8:35 am 08:35 Sunny 22 -5.6 18 -7.6 86 86 SSW 6 9 30.53 1034 10 16.09344 0 0
8:55 am 08:55 Sunny 23 -5.2 19 -7.4 85 85 SW 10 17 30.53 1034 10 16.09344 0 0
9:15 am 09:15 Sunny 23 -4.9 19 -7.3 83 83 SW 12 19 30.56 1035 10 16.09344 0 0
9:35 am 09:35 Sunny 24 -4.4 19 -7.1 82 82 SW 12 19 30.53 1034 10 16.09344 0 0
9:55 am 09:55 Sunny 25 -4 19 -7 80 80 SW 10 17 30.53 1034 10 16.09344 0 0
10:15 am 10:15 Sunny 26 -3.3 20 -6.8 77 77 SW 12 19 30.53 1034 10 16.09344 0 0
10:35 am 10:35 Sunny 26 -3.1 19 -7 75 75 SW 16 26 30.53 1034 10 16.09344 0 0
10:55 am 10:55 Sunny 27 -2.6 20 -6.8 73 73 SW 15 24 30.53 1034 10 16.09344 0 0
11:15 am 11:15 Sunny 28 -2.1 20 -6.6 72 72 SW 12 19 30.53 1034 10 16.09344 0 0
11:35 am 11:35 Sunny 28 -2 20 -6.5 72 72 SW 10 17 30.53 1034 10 16.09344 0 0
11:55 am 11:55 Sunny 29 -1.8 21 -6.2 72 72 WSW 10 17 30.48 1032 10 16.09344 0 0
12:15 pm 12:15 Sunny 29 -1.7 21 -6.3 71 71 WSW 7 11 30.48 1032 10 16.09344 0 0
12:35 pm 12:35 Sunny 29 -1.5 21 -6.2 71 71 W 9 15 30.48 1032 10 16.09344 0 0
12:55 pm 12:55 Sunny 29 -1.4 21 -6 71 71 W 8 13 30.48 1032 10 16.09344 0 0
1:15 pm 13:15 Sunny 29 -1.7 21 -6.2 72 72 WNW 7 11 30.48 1032 10 16.09344 0 0
1:35 pm 13:35 Sunny 29 -1.7 21 -6.1 72 72 WNW 7 11 30.48 1032 10 16.09344 0 0
1:55 pm 13:55 Sunny 29 -1.5 21 -6.2 71 71 WNW 6 9 30.45 1031 10 16.09344 0 0
2:15 pm 14:15 Sunny 29 -1.5 21 -6.2 71 71 WNW 6 9 30.45 1031 10 16.09344 0 0
2:35 pm 14:35 Sunny 29 -1.7 20 -6.4 71 71 WNW 5 7 30.45 1031 10 16.09344 0 0
2:55 pm 14:55 Sunny 29 -1.5 21 -6.3 70 70 WNW 5 7 30.45 1031 10 16.09344 0 0
3:15 pm 15:15 Sunny 29 -1.5 21 -6.2 71 71 Calm 30.45 1031 10 16.09344 0 0
3:35 pm 15:35 Sunny 29 -1.5 21 -6.1 71 71 NNW 3 6 30.45 1031 10 16.09344 0 0
3:55 pm 15:55 Sunny 29 -1.5 21 -6.2 71 71 N 3 6 30.45 1031 10 16.09344 0 0
4:15 pm 16:15 Sunny 29 -1.7 21 -6 73 73 NNW 3 6 30.45 1031 10 16.09344 0 0
4:35 pm 16:35 Sunny 27 -2.6 21 -6.3 76 76 N 3 6 30.5 1033 10 16.09344 0 0
4:55 pm 16:55 Sunny 27 -2.8 21 -6.2 78 78 Calm 30.5 1033 10 16.09344 0 0
5:15 pm 17:15 Clear 25 -3.8 20 -6.6 81 81 Calm 30.5 1033 10 16.09344 0 0
5:35 pm 17:35 Clear 22 -5.3 18 -7.6 84 84 Calm 30.53 1034 10 16.09344 0 0
5:55 pm 17:55 Clear 22 -5.8 18 -7.7 87 87 Calm 30.56 1035 10 16.09344 0 0
6:15 pm 18:15 Clear 22 -5.4 20 -6.6 91 91 Calm 30.56 1035 10 16.09344 0 0
6:35 pm 18:35 Clear 22 -5.6 19 -7.1 89 89 Calm 30.56 1035 10 16.09344 0 0
6:55 pm 18:55 Clear 20 -6.6 18 -7.8 91 91 Calm 30.56 1035 10 16.09344 0 0
7:15 pm 19:15 Clear with Mist and Fog 19 -7.1 17 -8.1 93 93 Calm 30.56 1035 5 8.04672 0 0
7:35 pm 19:35 Clear with Mist and Fog 17 -8.3 14 -9.8 89 89 N 3 6 30.59 1036 4 6.437376 0 0
7:55 pm 19:55 Clear with Mist and Fog 16 -9.1 13 -10.6 89 89 NW 3 6 30.59 1036 5 8.04672 0 0
8:15 pm 20:15 Clear 16 -8.8 13 -10.3 89 89 NW 3 6 30.59 1036 7 11.265408 0 0
8:35 pm 20:35 Clear 15 -9.3 12 -10.9 88 88 NW 5 7 30.59 1036 7 11.265408 0 0
8:55 pm 20:55 Clear 14 -10.2 11 -11.9 88 88 WNW 5 7 30.59 1036 7 11.265408 0 0
9:15 pm 21:15 Clear 14 -10.1 11 -11.7 88 88 WNW 6 9 30.56 1035 10 16.09344 0 0
9:35 pm 21:35 Clear 14 -10 11 -11.7 88 88 WNW 3 6 30.56 1035 10 16.09344 0 0
9:55 pm 21:55 Clear 13 -10.3 11 -11.9 88 88 WNW 5 7 30.56 1035 10 16.09344 0 0
10:15 pm 22:15 Clear 13 -10.7 10 -12.4 87 87 W 3 6 30.62 1037 10 16.09344 0 0
10:35 pm 22:35 Clear 13 -10.8 10 -12.4 88 88 WSW 3 6 30.62 1037 7 11.265408 0 0
10:55 pm 22:55 Clear 12 -11.1 9 -12.9 87 87 Calm 30.62 1037 7 11.265408 0 0
11:15 pm 23:15 Clear 11 -11.4 8 -13.3 86 86 Calm 30.62 1037 7 11.265408 0 0
11:35 pm 23:35 Clear 11 -11.4 8 -13.3 86 86 Calm 30.62 1037 7 11.265408 0 0
11:55 pm 23:55 Clear 11 -11.8 8 -13.6 87 87 Calm 30.62 1037 7 11.265408 0 0

Powered by AerisWeather